TimeEDT,TemperatureF,Dew PointF,Humidity,Sea Level PressureIn,VisibilityMPH,Wind Direction,Wind SpeedMPH,Gust SpeedMPH,PrecipitationIn,Events,Conditions,WindDirDegrees,DateUTC
12:51 AM,55.0,54.0,96,29.88,10.0,Calm,Calm,-,N/A,,Scattered Clouds,0,2013-08-04 04:51:00
1:51 AM,54.0,53.1,97,29.87,10.0,SW,4.6,-,N/A,,Clear,230,2013-08-04 05:51:00
2:51 AM,53.1,52.0,96,29.86,10.0,WSW,3.5,-,N/A,,Clear,240,2013-08-04 06:51:00
3:51 AM,54.0,52.0,93,29.86,10.0,WSW,4.6,-,N/A,,Mostly Cloudy,250,2013-08-04 07:51:00
4:51 AM,53.1,52.0,96,29.86,10.0,WSW,5.8,-,N/A,,Overcast,240,2013-08-04 08:51:00
5:51 AM,52.0,51.1,97,29.86,7.0,SW,4.6,-,N/A,,Partly Cloudy,230,2013-08-04 09:51:00
6:35 AM,53.6,51.8,94,29.87,8.0,Calm,Calm,-,N/A,,Mostly Cloudy,0,2013-08-04 10:35:00
6:51 AM,54.0,53.1,97,29.87,9.0,WSW,3.5,-,N/A,,Overcast,240,2013-08-04 10:51:00
7:15 AM,55.4,53.6,94,29.88,10.0,West,6.9,-,N/A,,Overcast,280,2013-08-04 11:15:00
7:51 AM,55.0,53.1,93,29.89,10.0,West,8.1,-,N/A,,Overcast,270,2013-08-04 11:51:00
8:39 AM,57.2,53.6,88,29.88,10.0,Variable,4.6,-,N/A,,Overcast,0,2013-08-04 12:39:00
8:43 AM,57.2,53.6,88,29.88,10.0,Variable,6.9,-,N/A,,Overcast,0,2013-08-04 12:43:00
8:51 AM,57.9,53.1,84,29.88,10.0,Variable,6.9,16.1,N/A,,Mostly Cloudy,0,2013-08-04 12:51:00
9:13 AM,57.2,51.8,82,29.89,10.0,WNW,8.1,16.1,N/A,,Overcast,290,2013-08-04 13:13:00
9:51 AM,60.1,53.1,78,29.89,10.0,West,9.2,-,N/A,,Overcast,260,2013-08-04 13:51:00
10:30 AM,60.8,51.8,72,29.89,10.0,Variable,6.9,-,N/A,,Mostly Cloudy,0,2013-08-04 14:30:00
10:38 AM,62.6,51.8,68,29.89,10.0,WNW,8.1,-,N/A,,Mostly Cloudy,300,2013-08-04 14:38:00
10:51 AM,60.1,51.1,72,29.89,10.0,Variable,5.8,-,N/A,,Mostly Cloudy,0,2013-08-04 14:51:00
11:51 AM,61.0,50.0,67,29.90,10.0,Variable,6.9,-,0.00,,Mostly Cloudy,0,2013-08-04 15:51:00
12:51 PM,64.0,50.0,60,29.89,10.0,WNW,12.7,20.7,0.00,,Scattered Clouds,300,2013-08-04 16:51:00
1:51 PM,66.0,48.0,52,29.88,10.0,NW,10.4,17.3,N/A,,Scattered Clouds,310,2013-08-04 17:51:00
2:51 PM,64.9,48.0,54,29.89,10.0,WNW,8.1,-,N/A,,Mostly Cloudy,290,2013-08-04 18:51:00
3:51 PM,64.9,48.0,54,29.89,10.0,WNW,8.1,18.4,N/A,,Partly Cloudy,290,2013-08-04 19:51:00
4:51 PM,60.1,50.0,69,29.91,10.0,Variable,5.8,18.4,0.00,,Mostly Cloudy,0,2013-08-04 20:51:00
5:51 PM,61.0,50.0,67,29.94,10.0,NW,10.4,17.3,0.00,,Scattered Clouds,310,2013-08-04 21:51:00
6:51 PM,55.9,52.0,87,29.95,3.0,WSW,3.5,-,0.02,Rain,Light Rain,250,2013-08-04 22:51:00
7:51 PM,55.0,53.1,93,29.96,10.0,Variable,4.6,-,0.00,Rain,Light Rain,0,2013-08-04 23:51:00
8:51 PM,54.0,51.1,90,29.98,10.0,Variable,3.5,-,0.00,,Mostly Cloudy,0,2013-08-05 00:51:00
9:38 PM,53.6,51.8,94,29.98,10.0,Variable,3.5,-,N/A,,Overcast,0,2013-08-05 01:38:00
9:51 PM,54.0,51.1,90,29.98,10.0,Variable,4.6,-,N/A,,Overcast,0,2013-08-05 01:51:00
9:58 PM,53.6,51.8,94,29.98,10.0,Variable,3.5,-,N/A,,Overcast,0,2013-08-05 01:58:00
10:33 PM,53.6,51.8,94,29.99,8.0,Variable,4.6,-,0.01,Rain,Light Rain,0,2013-08-05 02:33:00
10:41 PM,53.6,51.8,94,29.99,10.0,Variable,4.6,-,0.01,,Overcast,0,2013-08-05 02:41:00
10:51 PM,53.1,50.0,89,29.99,10.0,Variable,4.6,-,0.01,,Mostly Cloudy,0,2013-08-05 02:51:00
11:51 PM,52.0,48.9,89,29.99,10.0,Variable,3.5,-,N/A,,Partly Cloudy,0,2013-08-05 03:51:00